Volver al catálogo

THOR 5

ActivoComunicacionesGEO
NORAD 32487·PAYLOAD·🇳🇴 Norway

Lanzado Feb 11, 2008 desde Baikonur Cosmodrome

Loading…

TLE

ActualizadoSource: Space-Track

Época: Sep 14, 2026, 13:47 UTC

1 32487U 08006A   26257.57492769 -.00000017  00000-0  00000-0 0  9998
2 32487   0.0367 244.1425 0002295 286.8069  28.8294  1.00272895 68215

Sigue THOR 5 en tiempo real con AllMySat

Download on the App Store